TimeCST,TemperatureF,Dew PointF,Humidity,Sea Level PressureIn,VisibilityMPH,Wind Direction,Wind SpeedMPH,Gust SpeedMPH,PrecipitationIn,Events,Conditions,WindDirDegrees,DateUTC
12:53 AM,26.1,16.0,66,30.00,10.0,SSE,17.3,25.3,N/A,,Clear,160,2011-11-28 06:53:00
1:53 AM,27.0,17.1,66,29.99,10.0,SSE,17.3,-,N/A,,Clear,160,2011-11-28 07:53:00
2:53 AM,27.0,17.1,66,29.97,10.0,SSE,18.4,-,N/A,,Clear,160,2011-11-28 08:53:00
3:53 AM,27.0,17.1,66,29.93,10.0,SSE,17.3,28.8,N/A,,Clear,160,2011-11-28 09:53:00
4:53 AM,28.0,16.0,61,29.91,10.0,SSE,17.3,27.6,N/A,,Clear,160,2011-11-28 10:53:00
5:53 AM,28.0,16.0,61,29.91,10.0,South,18.4,24.2,N/A,,Clear,170,2011-11-28 11:53:00
6:53 AM,28.0,16.0,61,29.92,10.0,South,13.8,-,N/A,,Clear,170,2011-11-28 12:53:00
7:53 AM,28.9,16.0,58,29.92,10.0,South,15.0,-,N/A,,Clear,180,2011-11-28 13:53:00
8:53 AM,30.9,16.0,54,29.92,10.0,South,13.8,21.9,N/A,,Clear,180,2011-11-28 14:53:00
9:53 AM,33.1,18.0,54,29.95,10.0,South,11.5,-,N/A,,Clear,190,2011-11-28 15:53:00
10:53 AM,42.1,21.9,45,29.98,10.0,WSW,6.9,-,N/A,,Clear,240,2011-11-28 16:53:00
11:53 AM,52.0,30.9,45,29.99,10.0,NNW,26.5,-,N/A,,Clear,330,2011-11-28 17:53:00
12:53 PM,51.1,32.0,48,30.04,10.0,North,26.5,32.2,N/A,,Clear,350,2011-11-28 18:53:00
1:53 PM,50.0,30.9,48,30.08,10.0,North,18.4,27.6,N/A,,Clear,360,2011-11-28 19:53:00
2:53 PM,48.9,32.0,52,30.13,10.0,NNW,15.0,-,N/A,,Mostly Cloudy,340,2011-11-28 20:53:00
3:53 PM,46.0,32.0,58,30.17,10.0,NW,12.7,-,N/A,,Partly Cloudy,320,2011-11-28 21:53:00
4:53 PM,43.0,30.9,62,30.22,10.0,NW,9.2,-,N/A,,Scattered Clouds,310,2011-11-28 22:53:00
5:53 PM,41.0,27.0,57,30.26,10.0,NW,18.4,-,N/A,,Clear,320,2011-11-28 23:53:00
6:53 PM,37.0,23.0,57,30.29,10.0,NW,10.4,-,N/A,,Partly Cloudy,320,2011-11-29 00:53:00
7:53 PM,33.1,21.9,64,30.32,10.0,NNW,9.2,-,N/A,,Mostly Cloudy,340,2011-11-29 01:53:00
8:53 PM,27.0,19.0,72,30.34,10.0,NNW,6.9,-,N/A,,Clear,340,2011-11-29 02:53:00
9:53 PM,26.1,18.0,71,30.36,10.0,NNW,8.1,-,N/A,,Clear,330,2011-11-29 03:53:00
10:53 PM,21.9,15.1,75,30.38,10.0,NW,5.8,-,N/A,,Clear,310,2011-11-29 04:53:00
11:53 PM,23.0,15.1,72,30.40,10.0,NW,6.9,-,N/A,,Clear,320,2011-11-29 05:53:00